Location: Lombard
(41.8800°N, 88.0080°W)
Time: 16:59:55
(UTC-06:00)

Vanguard 3 - Pass Details

Date: 16 December 2023
Orbit: 508 x 3239 km, 33.4° (Epoch: 23 February)

Event Time Altitude Azimuth Distance (km) Brightness Sun altitude
Rises 20:19:07 0° 261° (W) 7,176 12.7 -43.1°
Reaches altitude 10° 20:24:14 10° 258° (WSW) 6,039 12.1 -44.1°
Enters shadow 20:40:26 59° 206° (SSW) 2,752 9.6 -47.1°
